DW5082 Tarrytown NY US current weather conditions

sailwx.info

Wind from 111

Air temperature 23.9° C
Dewpoint 20.2° C

Last reported at 2019-Jun-16 23:02 UTC.
Time now 2019-Jun-17 16:38 UTC

Location: N 41°03' W 073°51'.
View on Google Maps.

See reports from other nearby stations

  
Tides and Currents Weather Stations Pressure Air Temp Water Temp Dewpoint Dewpoint Depression Visibility Wind Speed Wind Dir Waves Ship Positions
date/time (UTC)wind fromknots sea level pressurealtimeterstation pressurevisibilityair tempwater tempwave heightnotes
2019-Jun-16 23:07 160 23.9
2019-Jun-16 23:02 111 23.9
2019-Jun-16 22:47 212 24.4
2019-Jun-16 22:42 212 24.4
2019-Jun-16 22:37 212 24.4
2019-Jun-16 22:32 212 24.4
2019-Jun-16 22:17 281 0 gusting 1 25.0
2019-Jun-16 22:12 243 25.0
2019-Jun-16 22:07 222 25.0
2019-Jun-16 22:02 295 25.0
2019-Jun-16 21:47 176 25.0
2019-Jun-16 21:42 176 25.0
2019-Jun-16 21:37 203 0 gusting 1 25.0
2019-Jun-16 21:32 228 0 gusting 5 25.0
2019-Jun-16 21:17 209 0 gusting 2 25.0
2019-Jun-16 21:12 277 0 gusting 1 24.4
2019-Jun-16 21:07 199 23.9
2019-Jun-16 21:02 191 23.9
2019-Jun-16 20:47 173 23.3
2019-Jun-16 20:42 210 22.8
2019-Jun-16 20:37 204 22.8
2019-Jun-16 20:32 210 22.8
2019-Jun-16 20:17 171 0 gusting 2 23.3
2019-Jun-16 20:12 156 23.3
2019-Jun-16 20:02 229 23.9
2019-Jun-16 19:47 142 1 gusting 2 23.9
2019-Jun-16 19:42 194 1 gusting 4 24.4
2019-Jun-16 19:37 150 1 gusting 2 24.4
2019-Jun-16 19:32 173 0 gusting 4 24.4
2019-Jun-16 19:17 233 0 gusting 2 24.4
2019-Jun-16 19:12 236 0 gusting 2 23.9
2019-Jun-16 19:07 159 1 gusting 2 23.9
2019-Jun-16 19:02 146 0 gusting 2 23.9
2019-Jun-16 18:47 238 23.3
2019-Jun-16 18:42 241 22.8
2019-Jun-16 18:37 257 22.8
2019-Jun-16 18:32 236 22.8
2019-Jun-16 18:17 209 22.2
2019-Jun-16 18:12 193 0 gusting 1 22.2
2019-Jun-16 18:07 245 22.2
2019-Jun-16 18:02 245 22.2
2019-Jun-16 17:47 245 22.2
2019-Jun-16 17:42 245 22.2
2019-Jun-16 17:37 245 22.8
2019-Jun-16 17:32 245 0 gusting 2 22.8
2019-Jun-16 17:17 205 0 gusting 4 23.3
2019-Jun-16 17:12 173 1 gusting 4 23.3
2019-Jun-16 17:07 224 1 gusting 2 23.9
2019-Jun-16 17:02 247 0 gusting 5 23.9
2019-Jun-16 16:47 222 24.4
2019-Jun-16 16:42 200 0 gusting 2 25.0
2019-Jun-16 16:37 174 0 gusting 4 25.0
2019-Jun-16 16:32 145 2 gusting 6 25.0
2019-Jun-16 16:17 228 2 gusting 5 25.0
2019-Jun-16 16:12 160 1 gusting 8 24.4
2019-Jun-16 16:07 182 2 gusting 5 25.0
2019-Jun-16 16:02 199 0 gusting 4 24.4
2019-Jun-16 15:47 236 2 gusting 5 23.9
2019-Jun-16 15:42 192 4 gusting 7 23.9
2019-Jun-16 15:37 243 3 gusting 6 23.9
2019-Jun-16 15:32 211 4 gusting 7 23.9
2019-Jun-16 15:17 241 3 gusting 7 23.3
2019-Jun-16 15:12 206 2 gusting 4 23.3
2019-Jun-16 15:07 170 2 gusting 6 23.3
2019-Jun-16 15:02 208 1 gusting 6 22.8
2019-Jun-16 14:47 230 2 gusting 6 22.2
2019-Jun-16 14:42 172 4 gusting 7 22.8
2019-Jun-16 14:37 242 1 gusting 2 22.8
2019-Jun-16 14:32 209 3 gusting 11 22.2
2019-Jun-16 14:17 190 3 gusting 5 22.2
2019-Jun-16 14:12 240 2 gusting 5 22.2
2019-Jun-16 14:07 232 1 gusting 5 22.2
2019-Jun-16 14:02 198 1 gusting 10 21.7
2019-Jun-16 13:47 225 1 gusting 6 21.7
2019-Jun-16 13:42 220 3 gusting 6 21.1
2019-Jun-16 13:37 200 1 gusting 6 21.1
2019-Jun-16 13:32 229 1 gusting 7 20.6
2019-Jun-16 13:17 186 2 gusting 6 20.0
2019-Jun-16 13:12 214 2 gusting 6 20.0
2019-Jun-16 13:07 089 2 gusting 5 20.0
2019-Jun-16 13:02 220 2 gusting 5 20.0
2019-Jun-16 12:47 196 1 gusting 4 19.4
2019-Jun-16 12:42 227 1 gusting 6 19.4
2019-Jun-16 12:37 218 0 gusting 2 19.4
2019-Jun-16 12:32 203 1 gusting 5 19.4
2019-Jun-16 12:17 217 1 gusting 4 19.4
2019-Jun-16 12:12 213 1 gusting 2 19.4
2019-Jun-16 12:07 198 0 gusting 2 18.9
2019-Jun-16 12:02 202 18.9
2019-Jun-16 11:47 169 1 gusting 2 18.9
2019-Jun-16 11:42 185 1 gusting 2 18.9
2019-Jun-16 11:37 152 18.9
2019-Jun-16 11:32 186 1 gusting 4 18.9
2019-Jun-16 11:17 212 0 gusting 2 18.9
2019-Jun-16 11:12 229 0 gusting 4 18.3
2019-Jun-16 11:07 238 1 gusting 2 18.3
2019-Jun-16 11:02 160 0 gusting 2 18.3
2019-Jun-16 10:47 177 0 gusting 2 18.3
2019-Jun-16 10:42 181 1 gusting 2 18.3
2019-Jun-16 10:37 144 0 gusting 4 18.3
2019-Jun-16 10:32 175 2 gusting 6 18.3
2019-Jun-16 10:17 200 0 gusting 2 18.3
2019-Jun-16 10:12 211 1 gusting 4 18.3
2019-Jun-16 10:07 198 1 gusting 2 18.3
2019-Jun-16 10:02 212 18.3
2019-Jun-16 09:47 186 18.3
2019-Jun-16 09:42 143 18.3
2019-Jun-16 09:37 175 1 gusting 2 18.3
2019-Jun-16 09:32 178 0 gusting 2 18.3
2019-Jun-16 09:17 133 0 gusting 2 18.3
2019-Jun-16 09:12 164 0 gusting 2 18.3
2019-Jun-16 09:07 243 0 gusting 2 18.3
2019-Jun-16 09:02 195 0 gusting 2 18.3
2019-Jun-16 08:47 160 0 gusting 2 18.3
2019-Jun-16 08:42 149 0 gusting 2 18.3
2019-Jun-16 08:37 165 0 gusting 2 18.3
2019-Jun-16 08:32 155 0 gusting 5 18.3
2019-Jun-16 08:17 190 0 gusting 5 18.3
2019-Jun-16 08:12 184 18.3
2019-Jun-16 08:07 184 1 gusting 4 18.3
2019-Jun-16 08:02 168 0 gusting 6 18.3
2019-Jun-16 07:47 199 0 gusting 2 17.8
2019-Jun-16 07:42 207 0 gusting 2 17.8
2019-Jun-16 07:37 159 17.8
2019-Jun-16 07:32 223 0 gusting 2 17.8
2019-Jun-16 07:17 126 0 gusting 2 17.8
2019-Jun-16 07:12 159 17.8
2019-Jun-16 07:07 197 18.3
2019-Jun-16 07:02 158 0 gusting 4 18.3
2019-Jun-16 06:47 167 0 gusting 2 18.3
2019-Jun-16 06:42 130 18.3
2019-Jun-16 06:37 133 18.3
2019-Jun-16 06:32 136 18.3
2019-Jun-16 06:17 217 0 gusting 2 18.9
2019-Jun-16 06:12 168 19.4
2019-Jun-16 06:07 196 0 gusting 2 19.4
2019-Jun-16 06:02 204 0 gusting 2 19.4
2019-Jun-16 05:47 170 20.0
2019-Jun-16 05:42 200 20.6
2019-Jun-16 05:37 191 0 gusting 2 20.6
2019-Jun-16 05:32 179 0 gusting 5 21.1
2019-Jun-16 05:17 207 3 gusting 8 21.7
2019-Jun-16 05:12 209 3 gusting 7 21.7
2019-Jun-16 05:07 210 1 gusting 6 21.7
2019-Jun-16 05:02 208 3 gusting 10 21.7
2019-Jun-16 04:47 189 2 gusting 7 22.2
2019-Jun-16 04:42 205 2 gusting 13 22.2
2019-Jun-16 04:37 183 3 gusting 6 22.2
2019-Jun-16 04:32 167 4 gusting 8 22.2
2019-Jun-16 04:17 195 2 gusting 7 22.8
2019-Jun-16 04:12 214 5 gusting 10 22.8
2019-Jun-16 04:07 210 3 gusting 8 22.8
2019-Jun-16 04:02 192 5 gusting 12 22.8
2019-Jun-16 03:47 199 2 gusting 10 22.8
2019-Jun-16 03:42 212 4 gusting 8 22.8
2019-Jun-16 03:37 188 5 gusting 10 22.8
2019-Jun-16 03:32 201 5 gusting 8 22.8
2019-Jun-16 03:17 207 2 gusting 10 22.8
2019-Jun-16 03:12 207 4 gusting 11 22.8
2019-Jun-16 03:07 163 4 gusting 8 22.8
2019-Jun-16 03:02 192 3 gusting 11 22.8
2019-Jun-16 02:47 219 4 gusting 6 22.8
2019-Jun-16 02:42 188 4 gusting 8 22.8
2019-Jun-16 02:37 185 2 gusting 10 23.3
2019-Jun-16 02:32 186 4 gusting 11 23.3
2019-Jun-16 02:17 210 2 gusting 10 23.9
2019-Jun-16 02:12 234 5 gusting 12 23.9
2019-Jun-16 02:07 189 3 gusting 7 23.9
2019-Jun-16 02:02 184 3 gusting 10 23.9
2019-Jun-16 01:47 200 4 gusting 7 23.9
2019-Jun-16 01:42 196 6 gusting 11 23.9
2019-Jun-16 01:37 211 1 gusting 11 23.9
2019-Jun-16 01:32 213 2 gusting 10 23.9
2019-Jun-16 01:17 204 3 gusting 10 23.9
2019-Jun-16 01:12 212 2 gusting 6 23.9
2019-Jun-16 01:07 181 1 gusting 5 23.9
2019-Jun-16 01:02 186 2 gusting 8 24.4
2019-Jun-16 00:47 234 1 gusting 8 24.4
2019-Jun-16 00:42 188 2 gusting 6 24.4
2019-Jun-16 00:37 187 1 gusting 5 24.4
2019-Jun-16 00:32 171 1 gusting 6 24.4
2019-Jun-16 00:17 193 1 gusting 6 24.4
2019-Jun-16 00:12 207 2 gusting 5 24.4
2019-Jun-16 00:07 180 0 gusting 2 24.4
2019-Jun-16 00:02 211 1 gusting 8 24.4
2019-Jun-15 23:47 191 3 gusting 7 24.4
2019-Jun-15 23:42 237 2 gusting 6 25.0
2019-Jun-15 23:37 217 1 gusting 10 25.0
2019-Jun-15 23:32 179 2 gusting 10 25.0
2019-Jun-15 23:17 209 2 gusting 12 25.0
2019-Jun-15 23:12 205 4 gusting 13 25.0
2019-Jun-15 23:07 178 6 gusting 13 25.0
2019-Jun-15 23:02 219 7 gusting 13 25.0
2019-Jun-15 22:47 182 3 gusting 10 25.0
2019-Jun-15 22:42 202 4 gusting 12 25.0
2019-Jun-15 22:37 193 4 gusting 7 25.6
2019-Jun-15 22:32 199 4 gusting 11 25.6
2019-Jun-15 22:17 137 2 gusting 6 25.6
2019-Jun-15 22:12 209 5 gusting 10 25.6
2019-Jun-15 22:07 205 4 gusting 6 25.6
2019-Jun-15 22:02 225 4 gusting 13 25.6
2019-Jun-15 21:47 207 5 gusting 10 26.1
2019-Jun-15 21:37 203 2 gusting 6 26.1
2019-Jun-15 21:32 188 2 gusting 10 26.1
2019-Jun-15 21:17 205 4 gusting 13 26.7
2019-Jun-15 21:12 222 6 gusting 13 27.2
2019-Jun-15 21:07 197 6 gusting 15 27.2
2019-Jun-15 21:02 222 5 gusting 13 27.2
2019-Jun-15 20:47 202 6 gusting 13 27.2
2019-Jun-15 20:42 218 2 gusting 12 27.8
2019-Jun-15 20:37 235 4 gusting 13 27.2
2019-Jun-15 20:32 193 5 gusting 13 27.2
2019-Jun-15 20:17 212 6 gusting 12 27.2
2019-Jun-15 20:12 222 6 gusting 13 27.2
2019-Jun-15 20:07 193 5 gusting 14 27.2
2019-Jun-15 20:02 188 7 gusting 13 27.2
2019-Jun-15 19:47 239 4 gusting 10 27.2
2019-Jun-15 19:42 163 2 gusting 11 27.2
2019-Jun-15 19:37 169 5 gusting 10 27.2
2019-Jun-15 19:32 184 4 gusting 15 27.2
2019-Jun-15 19:17 212 7 gusting 14 26.7
2019-Jun-15 19:12 188 5 gusting 10 27.2
2019-Jun-15 19:07 212 4 gusting 13 27.2
2019-Jun-15 19:02 226 4 gusting 13 26.7
2019-Jun-15 18:47 216 5 gusting 12 26.7
2019-Jun-15 18:42 227 8 gusting 15 26.7
2019-Jun-15 18:37 179 6 gusting 17 27.2
2019-Jun-15 18:32 216 6 gusting 15 27.2
2019-Jun-15 18:17 232 4 gusting 11 27.2
2019-Jun-15 18:12 210 1 gusting 7 27.2
2019-Jun-15 18:07 218 5 gusting 11 27.2
2019-Jun-15 18:02 213 4 gusting 11 27.2
2019-Jun-15 17:47 240 6 gusting 15 26.7
2019-Jun-15 17:42 181 6 gusting 11 26.7
2019-Jun-15 17:37 210 5 gusting 13 26.7
2019-Jun-15 17:32 165 3 gusting 11 27.2
2019-Jun-15 17:17 249 5 gusting 17 26.7
2019-Jun-15 17:12 233 4 gusting 10 26.7
2019-Jun-15 17:07 180 4 gusting 8 26.1
2019-Jun-15 17:02 210 5 gusting 10 26.1
2019-Jun-15 16:47 223 4 gusting 12 25.6
2019-Jun-15 16:42 139 4 gusting 7 25.6
2019-Jun-15 16:37 212 6 gusting 10 25.6
2019-Jun-15 16:32 212 2 gusting 13 25.6
2019-Jun-15 16:17 181 5 gusting 12 25.6
2019-Jun-15 16:12 194 5 gusting 10 25.6
2019-Jun-15 16:07 175 2 gusting 7 25.6
2019-Jun-15 16:02 194 5 gusting 10 25.0